[[{"header":{"parameterUnit":"m.s-1","parameterCategory":1,"la1":30.2991,"la2":30.254,"lo1":-89.0895,"lo2":-89.0444,"dy":0.0017,"dx":0.0017,"nx":28,"ny":28,"refTime":"2024-04-01T09:00:00:Z","depth":0,"parameterNumber":2,"parameterNumberName":"U-component_of_WINDS"},"data":[0,0,0,0,0,0,0,0,0,0,0,0,0,0,0,0,0,0,0,0,0,0,0,0,0,0,0,0,0,0,0,0,0,0,0,0,0,0,0,0,0,0,0,0,0,0,0,0,0,0,0,0,0,0,0,0,0,0,-0.4093,-0.4093,0,-0.4068,-0.4068,-0.4067,-0.4067,-0.4067,-0.4067,-0.4068,-0.4043,-0.4042,-0.4041,0,0,0,0,0,0,0,0,0,0,0,0,0,-0.4143,-0.4142,-0.4093,-0.4093,-0.4093,-0.4068,-0.4068,-0.4067,-0.4067,-0.4067,-0.4068,-0.4068,-0.4043,-0.4042,-0.4041,0,0,0,0,0,0,0,0,0,0,0,0,0,-0.412,-0.4142,-0.4093,-0.4089,-0.4089,-0.4068,-0.4068,-0.4067,-0.4067,-0.4067,-0.4068,-0.4068,-0.4043,-0.4042,-0.4041,-0.4022,0,0,-0.4036,-0.4036,0,0,0,0,0,0,0,0,-0.4121,-0.4118,-0.409,-0.409,-0.4089,-0.4071,-0.4076,-0.4052,-0.4067,-0.4075,-0.4068,-0.4068,-0.4052,-0.405,-0.4044,-0.4021,-0.402,-0.4036,-0.4035,-0.4035,-0.4034,0,0,0,0,0,0,0,-0.4123,-0.4119,-0.4083,-0.409,-0.4089,-0.409,-0.4087,-0.4071,-0.4061,-0.4074,-0.4074,-0.4071,-0.4052,-0.4045,-0.4043,-0.402,-0.4036,-0.4035,-0.4034,-0.4033,-0.3981,-0.398,0,0,0,0,0,0,-0.4125,-0.4121,-0.4084,-0.4083,-0.4107,-0.4088,-0.4085,-0.4076,-0.4061,-0.4059,-0.4071,-0.4071,-0.4048,-0.4045,-0.4042,-0.402,-0.4035,-0.4033,-0.4032,-0.3981,-0.3981,-0.398,0,0,0,0,0,0,-0.4126,-0.4122,-0.4085,-0.4102,-0.4097,-0.4087,-0.4077,-0.4076,-0.4069,-0.4059,-0.4057,-0.4066,-0.4048,-0.4044,-0.4027,-0.4019,-0.4033,-0.4031,-0.3982,-0.3981,-0.398,-0.3975,0,0,0,0,0,0,-0.4128,-0.4122,-0.4115,-0.4101,-0.4096,-0.407,-0.4076,-0.4075,-0.4067,-0.4067,-0.4054,-0.4052,-0.4048,-0.4029,-0.4026,-0.4017,-0.403,-0.3983,-0.3982,-0.3981,-0.3976,-0.3974,-0.3973,0,0,0,0,0,-0.4129,-0.4114,-0.4114,-0.411,-0.4086,-0.4069,-0.4066,-0.4062,-0.4066,-0.4059,-0.4052,-0.4053,-0.4021,-0.4028,-0.4024,-0.4015,-0.3983,-0.3982,-0.3981,-0.3977,-0.3974,-0.3973,0,0,0,0,0,0,-0.4127,-0.4113,-0.4112,-0.4092,-0.4082,-0.4069,-0.406,-0.4059,-0.4048,-0.4049,-0.4044,-0.4041,-0.4023,-0.4017,-0.4025,-0.3996,-0.4003,-0.4,-0.4001,-0.3999,-0.3997,-0.3999,-0.4029,0,0,0,0,0,-0.4125,-0.4112,-0.41,-0.4083,-0.4078,-0.407,-0.4062,-0.406,-0.4049,-0.4045,-0.4036,-0.4026,-0.4014,-0.4006,-0.3994,-0.3975,-0.3972,-0.3967,-0.3966,-0.3964,-0.3962,-0.3952,-0.395,-0.3976,-0.3976,-0.3976,0,0,-0.4119,-0.4109,-0.4101,-0.4083,-0.4074,-0.4061,-0.4066,-0.4052,-0.4043,-0.4043,-0.4026,-0.402,-0.4008,-0.399,-0.3981,-0.3984,-0.3955,-0.3963,-0.3962,-0.3961,-0.3951,-0.3948,-0.3946,-0.3975,-0.3976,-0.3976,0,0,-0.4102,-0.4093,-0.4078,-0.407,-0.4057,-0.4052,-0.4048,-0.4036,-0.4032,-0.4014,-0.4014,-0.4003,-0.3982,-0.3974,-0.3967,-0.3947,-0.3947,-0.3944,-0.3935,-0.3925,-0.3923,-0.3921,-0.3914,-0.3912,-0.3942,-0.3942,-0.3942,0,-0.4096,-0.4076,-0.4071,-0.4057,-0.4049,-0.4048,-0.4033,-0.4026,-0.401,-0.4005,-0.4008,-0.3982,-0.3974,-0.3954,-0.3949,-0.3944,-0.394,-0.3945,-0.3924,-0.3922,-0.392,-0.3913,-0.391,-0.3941,-0.3941,-0.3942,-0.3942,0,-0.407,-0.4056,-0.4046,-0.403,-0.4021,-0.4007,-0.4001,-0.3992,-0.399,-0.3985,-0.3968,-0.3959,-0.3945,-0.394,-0.3938,-0.392,-0.3922,-0.3925,-0.3931,-0.3917,-0.391,-0.3908,-0.3941,-0.3941,-0.3941,-0.3941,0,0,-0.405,-0.4032,-0.4028,-0.4021,-0.4008,-0.3997,-0.3983,-0.397,-0.3963,-0.3952,-0.394,-0.3923,-0.3925,-0.3917,-0.3915,-0.3906,-0.3891,-0.391,-0.3909,-0.3907,-0.3871,-0.3869,-0.3866,-0.3892,-0.3891,-0.3891,-0.3872,0,-0.4031,-0.4006,-0.4001,-0.3979,-0.3967,-0.3966,-0.3954,-0.3945,-0.3939,-0.3928,-0.3923,-0.391,-0.3914,-0.391,-0.3901,-0.3895,-0.3884,-0.3896,-0.3881,-0.388,-0.3883,-0.3862,-0.386,-0.3842,-0.3869,-0.3869,-0.3868,0,-0.4006,-0.3994,-0.3971,-0.3959,-0.3953,-0.3943,-0.393,-0.3919,-0.3909,-0.3906,-0.3897,-0.3896,-0.3882,-0.3889,-0.387,-0.3878,-0.3872,-0.3868,-0.3867,-0.3865,-0.3873,-0.386,-0.3837,-0.3834,-0.3864,-0.3865,-0.3865,0,-0.3994,-0.3972,-0.3956,-0.395,-0.3935,-0.3928,-0.3921,-0.3911,-0.3904,-0.3893,-0.3888,-0.3875,-0.3869,-0.386,-0.3855,-0.3861,-0.3836,-0.3843,-0.3834,-0.3834,-0.3828,-0.3829,-0.3804,-0.3825,-0.3825,-0.3825,-0.3825,0,-0.3973,-0.3959,-0.395,-0.394,-0.3924,-0.3919,-0.3904,-0.3898,-0.3889,-0.3878,-0.3877,-0.3867,-0.3861,-0.385,-0.3847,-0.3832,-0.3829,-0.3826,-0.3825,-0.3826,-0.3826,-0.3822,-0.3823,-0.3824,-0.3824,-0.3824,-0.3824,0,-0.3957,-0.395,-0.3932,-0.392,-0.3916,-0.3905,-0.3895,-0.3885,-0.388,-0.3866,-0.3863,-0.3855,-0.3842,-0.3837,-0.3821,-0.3819,-0.3802,-0.3802,-0.3805,-0.3805,-0.3796,-0.3796,-0.3766,-0.3762,-0.3786,-0.3786,-0.3786,0,-0.3944,-0.3933,-0.3919,-0.3911,-0.3905,-0.3893,-0.3884,-0.388,-0.3871,-0.3859,-0.3851,-0.3838,-0.3827,-0.3807,-0.38,-0.3788,-0.3788,-0.3779,-0.3786,-0.3788,-0.3788,-0.3789,-0.3787,-0.3777,-0.3777,-0.3777,-0.3776,0,-0.3921,-0.3919,-0.3907,-0.3894,-0.3884,-0.3874,-0.3864,-0.3858,-0.3852,-0.3842,-0.3829,-0.3821,-0.3805,-0.3792,-0.378,-0.3774,-0.3774,-0.3774,-0.3771,-0.3772,-0.3774,-0.3772,-0.3801,-0.3775,-0.3775,-0.3775,-0.3775,-0.3775,-0.3906,-0.3897,-0.3886,-0.3872,-0.3864,-0.3855,-0.3845,-0.3839,-0.3828,-0.3814,-0.3812,-0.3798,-0.3788,-0.3772,-0.3765,-0.3755,-0.3757,-0.3753,-0.3752,-0.3751,-0.375,-0.3776,-0.3752,-0.3753,-0.3753,-0.3753,-0.3753,0,-0.3884,-0.3877,-0.3865,-0.3851,-0.3841,-0.3841,-0.383,-0.3822,-0.3809,-0.38,-0.3789,-0.3774,-0.3762,-0.3755,-0.3743,-0.3735,-0.3735,-0.3732,-0.3733,-0.3731,-0.3749,-0.3752,-0.3733,-0.3733,-0.3733,-0.3733,-0.3733,-0.3733,-0.3871,-0.3855,-0.3851,-0.383,-0.3824,-0.3809,-0.3803,-0.3795,-0.3787,-0.377,-0.376,-0.3755,-0.3746,-0.3734,-0.3723,-0.3721,-0.3716,-0.3713,-0.3712,-0.3728,-0.373,-0.3732,-0.3735,-0.3713,-0.3713,-0.3695,-0.3695,-0.3695]},{"header":{"parameterUnit":"m.s-1","parameterCategory":1,"la1":30.2991,"la2":30.254,"lo1":-89.0895,"lo2":-89.0444,"dy":0.0017,"dx":0.0017,"nx":28,"ny":28,"refTime":"2024-04-01T09:00:00:Z","depth":0,"parameterNumber":3,"parameterNumberName":"V-component_of_WINDS"},"data":[0,0,0,0,0,0,0,0,0,0,0,0,0,0,0,0,0,0,0,0,0,0,0,0,0,0,0,0,0,0,0,0,0,0,0,0,0,0,0,0,0,0,0,0,0,0,0,0,0,0,0,0,0,0,0,0,0,0,4.2517,4.2518,0,4.2533,4.2533,4.2534,4.2479,4.2478,4.2476,4.2475,4.2489,4.2491,4.2493,0,0,0,0,0,0,0,0,0,0,0,0,0,4.2437,4.2439,4.2517,4.2518,4.2518,4.2533,4.2533,4.2534,4.248,4.2478,4.2476,4.2474,4.2489,4.2491,4.2493,0,0,0,0,0,0,0,0,0,0,0,0,0,4.2465,4.244,4.2517,4.2493,4.2491,4.2533,4.2533,4.2534,4.248,4.2478,4.2475,4.2473,4.2488,4.2491,4.2494,4.256,0,0,4.2502,4.2504,0,0,0,0,0,0,0,0,4.2463,4.2468,4.2496,4.2494,4.2492,4.2502,4.2511,4.2543,4.2481,4.2484,4.2475,4.2472,4.2495,4.2497,4.2506,4.2561,4.2561,4.2503,4.2504,4.2506,4.2506,0,0,0,0,0,0,0,4.2461,4.2467,4.2524,4.2497,4.2494,4.248,4.2481,4.2516,4.2503,4.2484,4.248,4.2482,4.2494,4.2503,4.2506,4.2562,4.2502,4.2505,4.2507,4.2508,4.2671,4.2674,0,0,0,0,0,0,4.2463,4.2465,4.2523,4.2524,4.2471,4.2483,4.2485,4.2501,4.2503,4.2501,4.2484,4.248,4.2499,4.2502,4.2506,4.2584,4.2506,4.2508,4.251,4.2669,4.2672,4.2675,0,0,0,0,0,0,4.2461,4.2469,4.2522,4.2494,4.2499,4.2487,4.2506,4.2503,4.2512,4.2503,4.25,4.2497,4.2498,4.2502,4.2547,4.2584,4.2509,4.2512,4.2665,4.267,4.2673,4.274,0,0,0,0,0,0,4.2459,4.2468,4.2494,4.2495,4.2501,4.2564,4.2509,4.2505,4.2517,4.2511,4.2514,4.2512,4.2496,4.2543,4.255,4.2586,4.2514,4.2662,4.2667,4.2672,4.2735,4.2746,4.2756,0,0,0,0,0,4.2457,4.2513,4.2496,4.2503,4.2534,4.2566,4.257,4.2551,4.2521,4.2546,4.254,4.2512,4.2578,4.2548,4.2555,4.2593,4.266,4.2666,4.2672,4.273,4.2744,4.2756,0,0,0,0,0,0,4.2517,4.2512,4.2494,4.2552,4.256,4.2557,4.2589,4.2566,4.2583,4.2577,4.2552,4.2553,4.2602,4.2602,4.2568,4.2657,4.2614,4.2621,4.2656,4.2669,4.2679,4.2678,4.2517,0,0,0,0,0,4.2537,4.2564,4.2559,4.261,4.2615,4.2601,4.2615,4.26,4.2607,4.261,4.2607,4.2615,4.2637,4.2653,4.2673,4.2734,4.2734,4.2763,4.2774,4.2783,4.279,4.2821,4.2835,4.2694,4.2694,4.2694,0,0,4.2578,4.2579,4.2598,4.2622,4.2627,4.2655,4.2605,4.2637,4.2658,4.2615,4.2657,4.2656,4.2662,4.2716,4.2739,4.2717,4.2828,4.279,4.2797,4.2799,4.2829,4.2842,4.2854,4.2698,4.2697,4.2697,0,0,4.2668,4.2672,4.2715,4.2721,4.2728,4.2718,4.2729,4.2729,4.2727,4.2769,4.2737,4.2761,4.28,4.2806,4.2814,4.2906,4.288,4.2913,4.2968,4.2999,4.301,4.302,4.3052,4.3064,4.292,4.292,4.292,0,4.2719,4.2762,4.274,4.2775,4.2786,4.2748,4.2791,4.2797,4.281,4.2819,4.2794,4.2842,4.2844,4.2898,4.292,4.2928,4.2938,4.2913,4.301,4.302,4.3029,4.3059,4.3072,4.2924,4.2923,4.2923,4.2923,0,4.2823,4.2853,4.2887,4.2901,4.2916,4.2955,4.2938,4.2955,4.2938,4.2931,4.2974,4.2974,4.2994,4.3005,4.2989,4.3057,4.3043,4.3015,4.2971,4.3046,4.3075,4.3086,4.2929,4.2928,4.2927,4.2926,0,0,4.2954,4.2955,4.2967,4.2973,4.2978,4.3,4.3036,4.3056,4.3071,4.3081,4.3111,4.3144,4.3118,4.3127,4.3111,4.3138,4.321,4.3106,4.3106,4.3126,4.3285,4.3307,4.3321,4.3193,4.3195,4.3197,4.3285,0,4.3042,4.3105,4.3086,4.3149,4.3176,4.314,4.3171,4.3177,4.3171,4.3192,4.3184,4.3209,4.3172,4.3177,4.3203,4.3196,4.3242,4.3189,4.322,4.3221,4.322,4.3336,4.3359,4.3442,4.3296,4.3297,4.3299,0,4.3155,4.317,4.3236,4.3236,4.3246,4.3275,4.3291,4.3311,4.3317,4.331,4.332,4.3298,4.3333,4.3288,4.3335,4.33,4.3311,4.3309,4.3312,4.3315,4.3265,4.3342,4.3468,4.3481,4.3316,4.3315,4.3313,0,4.3244,4.328,4.3324,4.333,4.3331,4.3352,4.3353,4.3356,4.3368,4.3382,4.3389,4.3406,4.3416,4.3429,4.3412,4.3381,4.3461,4.3415,4.3457,4.3457,4.3476,4.3476,4.3606,4.3483,4.3482,4.3482,4.3482,0,4.3346,4.3388,4.3364,4.3391,4.3437,4.3413,4.3459,4.3455,4.3458,4.3483,4.3452,4.3476,4.3451,4.3473,4.3459,4.3501,4.3505,4.35,4.3496,4.3504,4.3504,4.3511,4.3505,4.3485,4.3485,4.3484,4.3483,0,4.3453,4.3439,4.3485,4.3481,4.3481,4.3515,4.3511,4.3536,4.3526,4.3559,4.3565,4.3551,4.3575,4.3558,4.3582,4.3572,4.3627,4.3614,4.3625,4.3622,4.3665,4.3661,4.3805,4.3823,4.3687,4.3688,4.369,0,4.352,4.3551,4.3551,4.3566,4.3569,4.3593,4.3606,4.3583,4.3597,4.3605,4.3629,4.365,4.3666,4.3706,4.3697,4.3715,4.3703,4.3752,4.3705,4.3712,4.3704,4.3703,4.3706,4.3762,4.3764,4.3765,4.3766,0,4.364,4.3631,4.365,4.3667,4.3683,4.3695,4.3705,4.3718,4.3695,4.3713,4.3737,4.3749,4.3773,4.3795,4.3809,4.3809,4.3784,4.378,4.3791,4.3799,4.3805,4.3803,4.3652,4.3777,4.3776,4.3775,4.3775,4.3774,4.3729,4.3755,4.3758,4.3781,4.3785,4.3795,4.3818,4.3811,4.3831,4.3849,4.3834,4.3863,4.3866,4.3883,4.3886,4.3908,4.3888,4.3903,4.3907,4.3912,4.3918,4.38,4.391,4.391,4.391,4.3909,4.3909,0,4.3847,4.3848,4.3868,4.3883,4.39,4.3874,4.3883,4.3899,4.3925,4.393,4.3946,4.3974,4.3994,4.3987,4.4004,4.4023,4.4012,4.4029,4.4027,4.4028,4.3935,4.3924,4.4037,4.4037,4.4037,4.4037,4.4037,4.4037,4.3911,4.3954,4.3945,4.3989,4.3988,4.4016,4.4023,4.4032,4.4036,4.4068,4.4084,4.4079,4.4079,4.4097,4.4114,4.4111,4.4119,4.414,4.4134,4.4047,4.4034,4.4022,4.4012,4.4142,4.4142,4.4225,4.4226,4.4226]}]]